[[{"header":{"parameterUnit":"m.s-1","parameterCategory":1,"la1":30.2992,"la2":30.254,"lo1":-89.0895,"lo2":-89.0443,"dy":0.0025,"dx":0.0025,"nx":19,"ny":19,"refTime":"2026-03-30T09:00:00:Z","depth":0,"parameterNumber":2,"parameterNumberName":"U-component_of_WINDS"},"data":[0,0,0,-3.9858,-3.986,-3.9983,-3.9983,-4.0139,-4.0141,0,0,0,0,0,0,0,0,0,0,0,-3.9821,-3.9822,-3.9857,-3.986,-3.9983,-3.9983,-4.0139,-4.0141,0,0,0,0,0,0,0,0,0,0,0,-3.9821,-3.9822,-3.9823,-3.9861,-3.9982,-3.9983,-4.0139,-4.0047,0,0,0,0,0,0,0,0,0,0,-3.9928,-3.9894,-3.9822,-3.9823,-3.9862,-3.9982,-3.9983,-4.0042,-4.0052,-4.0084,0,-4.0112,0,-4.0129,-4.0151,-4.0152,0,0,0,-3.986,-3.9886,-3.9919,-3.9824,-3.9863,-3.9982,-3.9927,-4.0048,-4.0059,-4.0098,-4.0115,-4.012,-4.0132,-4.0152,-4.0153,-4.0337,-4.0337,0,0,-3.9853,-3.9843,-3.9911,-3.9926,-3.9908,-3.9923,-3.9931,-4.0055,-4.0073,-4.0115,-4.0124,-4.0134,-4.0153,-4.0155,-4.0336,-4.0337,0,0,0,-3.9834,-3.9839,-3.9869,-3.992,-3.9942,-3.9927,-3.9936,-4.0067,-4.0078,-4.0126,-4.0136,-4.0154,-4.0156,-4.0335,-4.0336,-4.0367,0,0,0,-3.983,-3.9827,-3.9866,-3.9861,-3.994,-4.0006,-3.9945,-4.0069,-4.0083,-4.0135,-4.0154,-4.0158,-4.0334,-4.0336,-4.0364,-4.0383,0,0,0,-3.9813,-3.9825,-3.9843,-3.986,-3.9912,-4.0004,-4.0022,-4.0073,-4.009,-4.0152,-4.0158,-4.0333,-4.0335,-4.0362,-4.0378,-4.0426,0,0,0,-3.9792,-3.987,-3.9843,-3.9934,-3.9911,-4.0024,-4.0021,-4.0106,-4.0163,-4.0155,-4.0334,-4.0336,-4.0361,-4.0376,-4.0423,-4.0462,-4.0478,0,0,-3.9884,-3.988,-3.9935,-3.9915,-4.0029,-4.0006,-4.0125,-4.0187,-4.0203,-4.0291,-4.0296,-4.0365,-4.0378,-4.0426,-4.0577,-4.059,0,0,0,-3.996,-3.9998,-4.0031,-4.0085,-4.0135,-4.0179,-4.0224,-4.0247,-4.0323,-4.0246,-4.0397,-4.0405,-4.0434,-4.0452,-4.0463,-4.0487,-4.0345,-4.0345,-4.0345,-4.0073,-4.0089,-4.0179,-4.021,-4.0263,-4.0309,-4.0353,-4.0392,-4.0393,-4.0429,-4.0454,-4.0544,-4.0566,-4.0574,-4.0599,-4.0479,-4.0479,-4.0479,-4.0479,-4.0207,-4.0262,-4.0263,-4.035,-4.0367,-4.0441,-4.0489,-4.0487,-4.0558,-4.0527,-4.0552,-4.0513,-4.0587,-4.061,-4.0482,-4.0481,-4.0481,-4.0481,-4.048,-4.028,-4.0309,-4.0337,-4.0416,-4.0476,-4.0506,-4.0573,-4.0587,-4.0601,-4.0626,-4.0653,-4.0652,-4.0651,-4.0639,-4.0639,-4.0639,-4.064,-4.064,-4.064,-4.0343,-4.0374,-4.0428,-4.0489,-4.0525,-4.0574,-4.0623,-4.0659,-4.0703,-4.0707,-4.0707,-4.0703,-4.0593,-4.0563,-4.0645,-4.0644,-4.0643,-4.0643,-4.0643,-4.0467,-4.0441,-4.0526,-4.0563,-4.0634,-4.0692,-4.071,-4.0782,-4.0814,-4.0847,-4.0839,-4.0756,-4.0753,-4.0744,-4.0719,-4.0837,-4.0837,-4.0837,-4.0837,-4.0526,-4.0527,-4.0616,-4.0673,-4.0731,-4.0756,-4.0851,-4.089,-4.0926,-4.0947,-4.0933,-4.0902,-4.0893,-4.0895,-4.0884,-4.086,-4.1011,-4.1011,-4.1011,-4.0602,-4.0609,-4.0686,-4.0721,-4.0779,-4.0827,-4.0916,-4.0982,-4.1018,-4.1019,-4.0963,-4.0956,-4.0906,-4.089,-4.0885,-4.0867,-4.0824,0,0]},{"header":{"parameterUnit":"m.s-1","parameterCategory":1,"la1":30.2992,"la2":30.254,"lo1":-89.0895,"lo2":-89.0443,"dy":0.0025,"dx":0.0025,"nx":19,"ny":19,"refTime":"2026-03-30T09:00:00:Z","depth":0,"parameterNumber":3,"parameterNumberName":"V-component_of_WINDS"},"data":[0,0,0,4.0948,4.095,4.1023,4.1023,4.1129,4.113,0,0,0,0,0,0,0,0,0,0,0,4.0936,4.0937,4.0948,4.095,4.1023,4.1023,4.1129,4.113,0,0,0,0,0,0,0,0,0,0,0,4.0936,4.0937,4.0938,4.095,4.1023,4.1023,4.1129,4.1069,0,0,0,0,0,0,0,0,0,0,4.0995,4.0994,4.0937,4.0938,4.0951,4.1023,4.1023,4.1065,4.1072,4.1102,0,4.1133,0,4.1134,4.1138,4.1139,0,0,0,4.0942,4.0989,4.1,4.0938,4.0952,4.1023,4.0988,4.1069,4.1077,4.1112,4.1134,4.1138,4.1135,4.1139,4.114,4.1344,4.1346,0,0,4.0938,4.0954,4.0995,4.1005,4.0997,4.0985,4.099,4.1074,4.1099,4.1135,4.114,4.1137,4.114,4.1141,4.1343,4.1345,0,0,0,4.0932,4.0951,4.096,4.1001,4.1014,4.0988,4.0993,4.1095,4.1097,4.1141,4.1138,4.1141,4.1142,4.1342,4.1344,4.1426,0,0,0,4.0929,4.0948,4.0959,4.0969,4.1013,4.1056,4.1013,4.1091,4.11,4.1138,4.1141,4.1143,4.134,4.1343,4.1421,4.1462,0,0,0,4.0928,4.0947,4.0961,4.097,4.1002,4.1054,4.106,4.1093,4.1099,4.1139,4.1144,4.1339,4.1342,4.1416,4.1454,4.1522,0,0,0,4.093,4.1031,4.0963,4.1074,4.1001,4.1105,4.1059,4.1135,4.1179,4.1141,4.134,4.1343,4.1414,4.1449,4.1517,4.1583,4.1612,0,0,4.1066,4.1048,4.1113,4.1054,4.1174,4.1092,4.1224,4.1248,4.1236,4.1308,4.1313,4.1423,4.1454,4.1521,4.1766,4.1789,0,0,0,4.1161,4.1208,4.1236,4.1281,4.1303,4.1326,4.1329,4.1338,4.1399,4.1277,4.1464,4.1482,4.1521,4.1552,4.1572,4.1605,4.1358,4.1358,4.1357,4.1375,4.1357,4.1463,4.1455,4.1498,4.1501,4.1534,4.1547,4.1513,4.1558,4.158,4.1731,4.1768,4.1782,4.1817,4.1612,4.1612,4.1613,4.1613,4.1574,4.1638,4.1594,4.1681,4.1661,4.1733,4.174,4.1715,4.1779,4.1712,4.1746,4.1676,4.1808,4.1838,4.1619,4.1618,4.1617,4.1617,4.1616,4.1713,4.1741,4.1752,4.1816,4.1867,4.1853,4.1918,4.1896,4.1875,4.1908,4.193,4.1928,4.1925,4.192,4.1921,4.1921,4.1922,4.1922,4.1922,4.1854,4.1864,4.1922,4.1957,4.1984,4.2016,4.2021,4.2046,4.2068,4.2047,4.2047,4.201,4.1825,4.1779,4.193,4.1929,4.1928,4.1927,4.1927,4.2064,4.2014,4.2104,4.2131,4.2171,4.2223,4.2195,4.2248,4.2265,4.2298,4.2255,4.2121,4.21,4.2084,4.2046,4.2258,4.2258,4.2258,4.2258,4.2183,4.2171,4.226,4.2305,4.2346,4.233,4.2432,4.2438,4.2435,4.2444,4.241,4.2358,4.2343,4.2331,4.231,4.2274,4.2539,4.2539,4.2539,4.2312,4.2303,4.2395,4.2394,4.2424,4.2449,4.2545,4.2598,4.2583,4.255,4.2452,4.244,4.2355,4.2328,4.2294,4.2262,4.2196,0,0]}]]